contact:dominique.lefevre@mio.osupytheas.fr, maurice.libes@osupytheas.fr, didier.mallarino@osupytheas.fr
Project:EMSO http://www.emso-fr.org/EMSO-France
Depth: 2436.0 m
Title:EMSO Ligure Ouest : Data MII capteur MICROCAT
DateTime_Computer,Latitude,Longitude,Temperature,Conductivity,Pressure,DateTime_Instrument
DateTime_Computer,Latitude,Longitude,degC,S m-1,dbar,DateTime_Instrument
2021-04-09T00:02:00Z,42.805,6.029,13.3006,4.60014,2469.377,2021-4-09T02:03:09Z
2021-04-09T00:05:04Z,42.805,6.029,13.3000,4.60067,2469.377,2021-4-09T02:06:12Z
2021-04-09T00:08:07Z,42.805,6.029,13.2996,4.60043,2469.377,2021-4-09T02:09:15Z
2021-04-09T00:11:10Z,42.805,6.029,13.3011,4.60014,2469.386,2021-4-09T02:12:18Z
2021-04-09T00:14:13Z,42.805,6.029,13.2998,4.60061,2469.363,2021-4-09T02:15:21Z
2021-04-09T00:17:16Z,42.805,6.029,13.3008,4.60039,2469.377,2021-4-09T02:18:24Z
2021-04-09T00:20:19Z,42.805,6.029,13.3036,4.60025,2469.34,2021-4-09T02:21:27Z
2021-04-09T00:23:22Z,42.805,6.029,13.3016,4.60028,2469.4,2021-4-09T02:24:30Z
2021-04-09T00:26:25Z,42.805,6.029,13.3013,4.60010,2469.377,2021-4-09T02:27:34Z
2021-04-09T00:29:29Z,42.805,6.029,13.3002,4.60009,2469.4,2021-4-09T02:30:37Z
2021-04-09T00:32:32Z,42.805,6.029,13.2997,4.60071,2469.386,2021-4-09T02:33:40Z
2021-04-09T00:35:35Z,42.805,6.029,13.3011,4.60019,2469.386,2021-4-09T02:36:43Z
2021-04-09T00:38:38Z,42.805,6.029,13.3044,4.60054,2469.4,2021-4-09T02:39:46Z
2021-04-09T00:41:41Z,42.805,6.029,13.3013,4.60056,2469.4,2021-4-09T02:42:49Z
2021-04-09T00:44:44Z,42.805,6.029,13.3027,4.60049,2469.424,2021-4-09T02:45:52Z
2021-04-09T00:47:47Z,42.805,6.029,13.3019,4.60040,2469.377,2021-4-09T02:48:55Z
2021-04-09T00:50:50Z,42.805,6.029,13.3026,4.60064,2469.363,2021-4-09T02:51:58Z
2021-04-09T00:53:53Z,42.805,6.029,13.3020,4.60119,2469.424,2021-4-09T02:55:02Z
2021-04-09T00:56:57Z,42.805,6.029,13.3013,4.60028,2469.424,2021-4-09T02:58:05Z
2021-04-09T01:00:00Z,42.805,6.029,13.3005,4.60070,2469.386,2021-4-09T03:01:08Z
2021-04-09T01:03:03Z,42.805,6.029,13.3029,4.60037,2469.284,2021-4-09T03:04:11Z
2021-04-09T01:06:06Z,42.805,6.029,13.3009,4.60057,2469.293,2021-4-09T03:07:14Z
2021-04-09T01:09:09Z,42.805,6.029,13.3034,4.60063,2469.33,2021-4-09T03:10:17Z
2021-04-09T01:12:12Z,42.805,6.029,13.3033,4.60104,2469.307,2021-4-09T03:13:20Z
2021-04-09T01:15:15Z,42.805,6.029,13.3001,4.60083,2469.354,2021-4-09T03:16:23Z
2021-04-09T01:18:18Z,42.805,6.029,13.3016,4.60064,2469.34,2021-4-09T03:19:27Z
2021-04-09T01:21:22Z,42.805,6.029,13.3005,4.60075,2469.33,2021-4-09T03:22:30Z
2021-04-09T01:24:25Z,42.805,6.029,13.3011,4.60060,2469.33,2021-4-09T03:25:33Z
2021-04-09T01:27:28Z,42.805,6.029,13.3014,4.60074,2469.33,2021-4-09T03:28:36Z
2021-04-09T01:30:31Z,42.805,6.029,13.3006,4.60039,2469.246,2021-4-09T03:31:39Z
2021-04-09T01:33:34Z,42.805,6.029,13.3029,4.60050,2469.246,2021-4-09T03:34:42Z
2021-04-09T01:36:37Z,42.805,6.029,13.3026,4.60068,2469.33,2021-4-09T03:37:45Z
2021-04-09T01:39:40Z,42.805,6.029,13.3024,4.60022,2469.316,2021-4-09T03:40:48Z
2021-04-09T01:42:43Z,42.805,6.029,13.3018,4.60056,2469.354,2021-4-09T03:43:51Z
2021-04-09T01:45:47Z,42.805,6.029,13.3001,4.60029,2469.354,2021-4-09T03:46:55Z
2021-04-09T01:48:50Z,42.805,6.029,13.3020,4.60051,2469.34,2021-4-09T03:49:58Z
2021-04-09T01:51:53Z,42.805,6.029,13.3002,4.60059,2469.34,2021-4-09T03:53:01Z
2021-04-09T01:54:56Z,42.805,6.029,13.3009,4.60039,2469.34,2021-4-09T03:56:04Z
2021-04-09T01:57:59Z,42.805,6.029,13.3010,4.60084,2469.354,2021-4-09T03:59:07Z
2021-04-09T02:01:02Z,42.805,6.029,13.3011,4.60062,2469.377,2021-4-09T04:02:10Z
2021-04-09T02:04:05Z,42.805,6.029,13.3006,4.60093,2469.4,2021-4-09T04:05:13Z
2021-04-09T02:07:08Z,42.805,6.029,13.2997,4.60109,2469.424,2021-4-09T04:08:16Z
2021-04-09T02:10:11Z,42.805,6.029,13.2998,4.60066,2469.386,2021-4-09T04:11:20Z
2021-04-09T02:13:15Z,42.805,6.029,13.2992,4.60059,2469.4,2021-4-09T04:14:23Z
2021-04-09T02:16:18Z,42.805,6.029,13.3005,4.60076,2469.386,2021-4-09T04:17:26Z
2021-04-09T02:19:21Z,42.805,6.029,13.2992,4.60061,2469.4,2021-4-09T04:20:29Z
2021-04-09T02:22:24Z,42.805,6.029,13.2999,4.60064,2469.424,2021-4-09T04:23:32Z
2021-04-09T02:25:27Z,42.805,6.029,13.2996,4.60064,2469.386,2021-4-09T04:26:35Z
2021-04-09T02:28:30Z,42.805,6.029,13.2998,4.60082,2469.41,2021-4-09T04:29:38Z
2021-04-09T02:31:33Z,42.805,6.029,13.2999,4.60068,2469.41,2021-4-09T04:32:41Z
2021-04-09T02:34:36Z,42.805,6.029,13.2993,4.60102,2469.433,2021-4-09T04:35:44Z
2021-04-09T02:37:39Z,42.805,6.029,13.3002,4.60081,2469.447,2021-4-09T04:38:48Z
2021-04-09T02:40:43Z,42.805,6.029,13.3000,4.60063,2469.433,2021-4-09T04:41:51Z
2021-04-09T02:43:46Z,42.805,6.029,13.3005,4.60097,2469.433,2021-4-09T04:44:54Z
2021-04-09T02:46:49Z,42.805,6.029,13.3002,4.60059,2469.386,2021-4-09T04:47:57Z
2021-04-09T02:49:52Z,42.805,6.029,13.3004,4.60091,2469.41,2021-4-09T04:51:00Z
2021-04-09T02:52:55Z,42.805,6.029,13.2997,4.60064,2469.456,2021-4-09T04:54:03Z
2021-04-09T02:55:58Z,42.805,6.029,13.3002,4.60029,2469.433,2021-4-09T04:57:06Z
2021-04-09T02:59:01Z,42.805,6.029,13.3004,4.60031,2469.433,2021-4-09T05:00:09Z
2021-04-09T03:02:04Z,42.805,6.029,13.2996,4.60046,2469.456,2021-4-09T05:03:12Z
2021-04-09T03:05:08Z,42.805,6.029,13.3000,4.60043,2469.433,2021-4-09T05:06:16Z
2021-04-09T03:08:11Z,42.805,6.029,13.3002,4.60069,2469.386,2021-4-09T05:09:19Z
2021-04-09T03:11:14Z,42.805,6.029,13.3012,4.60044,2469.41,2021-4-09T05:12:22Z
2021-04-09T03:14:17Z,42.805,6.029,13.3006,4.60074,2469.354,2021-4-09T05:15:25Z
2021-04-09T03:17:20Z,42.805,6.029,13.2998,4.60071,2469.27,2021-4-09T05:18:28Z
2021-04-09T03:20:23Z,42.805,6.029,13.3004,4.60105,2469.33,2021-4-09T05:21:31Z
2021-04-09T03:23:26Z,42.805,6.029,13.3015,4.60042,2469.316,2021-4-09T05:24:34Z
2021-04-09T03:26:29Z,42.805,6.029,13.3025,4.60069,2469.363,2021-4-09T05:27:37Z
2021-04-09T03:29:32Z,42.805,6.029,13.2994,4.60041,2469.33,2021-4-09T05:30:41Z
2021-04-09T03:32:36Z,42.805,6.029,13.2996,4.60104,2469.307,2021-4-09T05:33:44Z
2021-04-09T03:35:39Z,42.805,6.029,13.3006,4.60080,2469.363,2021-4-09T05:36:47Z
2021-04-09T03:38:42Z,42.805,6.029,13.3004,4.60065,2469.34,2021-4-09T05:39:50Z
2021-04-09T03:41:45Z,42.805,6.029,13.3028,4.60049,2469.293,2021-4-09T05:42:53Z
2021-04-09T03:44:48Z,42.805,6.029,13.3007,4.60051,2469.316,2021-4-09T05:45:56Z
2021-04-09T03:47:51Z,42.805,6.029,13.3016,4.60044,2469.34,2021-4-09T05:48:59Z
2021-04-09T03:50:54Z,42.805,6.029,13.3003,4.60067,2469.34,2021-4-09T05:52:02Z
2021-04-09T03:53:57Z,42.805,6.029,13.3009,4.60038,2469.386,2021-4-09T05:55:06Z
2021-04-09T03:57:01Z,42.805,6.029,13.3017,4.60052,2469.386,2021-4-09T05:58:09Z
2021-04-09T04:00:04Z,42.805,6.029,13.3030,4.60071,2469.377,2021-4-09T06:01:12Z
2021-04-09T04:03:07Z,42.805,6.029,13.3039,4.60069,2469.41,2021-4-09T06:04:15Z
2021-04-09T04:06:10Z,42.805,6.029,13.3026,4.60104,2469.386,2021-4-09T06:07:18Z
2021-04-09T04:09:13Z,42.805,6.029,13.3011,4.60059,2469.4,2021-4-09T06:10:21Z
2021-04-09T04:12:16Z,42.805,6.029,13.3010,4.60105,2469.377,2021-4-09T06:13:24Z
2021-04-09T04:15:19Z,42.805,6.029,13.3011,4.60061,2469.354,2021-4-09T06:16:27Z
2021-04-09T04:18:22Z,42.805,6.029,13.3004,4.60099,2469.386,2021-4-09T06:19:30Z
2021-04-09T04:21:25Z,42.805,6.029,13.3023,4.60080,2469.4,2021-4-09T06:22:34Z
2021-04-09T04:24:29Z,42.805,6.029,13.3014,4.60074,2469.4,2021-4-09T06:25:37Z
2021-04-09T04:27:32Z,42.805,6.029,13.3017,4.60093,2469.424,2021-4-09T06:28:40Z
2021-04-09T04:30:35Z,42.805,6.029,13.3031,4.60075,2469.41,2021-4-09T06:31:43Z
2021-04-09T04:33:38Z,42.805,6.029,13.3010,4.60097,2469.447,2021-4-09T06:34:46Z
2021-04-09T04:36:41Z,42.805,6.029,13.3013,4.60091,2469.424,2021-4-09T06:37:49Z
2021-04-09T04:39:44Z,42.805,6.029,13.3014,4.60073,2469.41,2021-4-09T06:40:52Z
2021-04-09T04:42:47Z,42.805,6.029,13.3021,4.60093,2469.41,2021-4-09T06:43:55Z
2021-04-09T04:45:50Z,42.805,6.029,13.3014,4.60090,2469.456,2021-4-09T06:46:59Z
2021-04-09T04:48:54Z,42.805,6.029,13.2993,4.60042,2469.447,2021-4-09T06:50:02Z
2021-04-09T04:51:57Z,42.805,6.029,13.3014,4.60083,2469.456,2021-4-09T06:53:05Z
2021-04-09T04:55:00Z,42.805,6.029,13.3019,4.60108,2469.47,2021-4-09T06:56:08Z
2021-04-09T04:58:03Z,42.805,6.029,13.3010,4.60073,2469.447,2021-4-09T06:59:11Z
2021-04-09T05:01:06Z,42.805,6.029,13.3009,4.60080,2469.447,2021-4-09T07:02:14Z
2021-04-09T05:04:09Z,42.805,6.029,13.3004,4.60078,2469.424,2021-4-09T07:05:17Z
2021-04-09T05:07:12Z,42.805,6.029,13.3026,4.60090,2469.41,2021-4-09T07:08:20Z
2021-04-09T05:10:15Z,42.805,6.029,13.3035,4.60046,2469.41,2021-4-09T07:11:23Z
2021-04-09T05:13:18Z,42.805,6.029,13.3023,4.60070,2469.424,2021-4-09T07:14:27Z
2021-04-09T05:16:22Z,42.805,6.029,13.3009,4.60109,2469.41,2021-4-09T07:17:30Z
2021-04-09T05:19:25Z,42.805,6.029,13.3012,4.60083,2469.41,2021-4-09T07:20:33Z
2021-04-09T05:22:28Z,42.805,6.029,13.3009,4.60095,2469.41,2021-4-09T07:23:36Z
2021-04-09T05:25:31Z,42.805,6.029,13.3021,4.60092,2469.447,2021-4-09T07:26:39Z
2021-04-09T05:28:34Z,42.805,6.029,13.3003,4.60097,2469.41,2021-4-09T07:29:42Z
2021-04-09T05:31:37Z,42.805,6.029,13.3011,4.60089,2469.447,2021-4-09T07:32:45Z
2021-04-09T05:34:40Z,42.805,6.029,13.3009,4.60085,2469.4,2021-4-09T07:35:48Z
2021-04-09T05:37:43Z,42.805,6.029,13.3002,4.60080,2469.41,2021-4-09T07:38:52Z
2021-04-09T05:40:47Z,42.805,6.029,13.3011,4.60079,2469.447,2021-4-09T07:41:55Z
2021-04-09T05:43:50Z,42.805,6.029,13.3015,4.60082,2469.433,2021-4-09T07:44:58Z
2021-04-09T05:46:53Z,42.805,6.029,13.3010,4.60044,2469.424,2021-4-09T07:48:01Z
2021-04-09T05:49:56Z,42.805,6.029,13.3006,4.60087,2469.41,2021-4-09T07:51:04Z
2021-04-09T05:52:59Z,42.805,6.029,13.3031,4.60084,2469.447,2021-4-09T07:54:07Z
2021-04-09T05:56:02Z,42.805,6.029,13.3024,4.60057,2469.447,2021-4-09T07:57:10Z
2021-04-09T05:59:05Z,42.805,6.029,13.3002,4.60044,2469.424,2021-4-09T08:00:13Z
2021-04-09T06:02:08Z,42.805,6.029,13.2998,4.60061,2469.433,2021-4-09T08:03:16Z
2021-04-09T06:05:11Z,42.805,6.029,13.3004,4.60063,2469.4,2021-4-09T08:06:20Z
2021-04-09T06:08:15Z,42.805,6.029,13.2998,4.60048,2469.433,2021-4-09T08:09:23Z
2021-04-09T06:11:18Z,42.805,6.029,13.2998,4.60055,2469.456,2021-4-09T08:12:26Z
2021-04-09T06:14:21Z,42.805,6.029,13.3014,4.60094,2469.424,2021-4-09T08:15:29Z
2021-04-09T06:17:24Z,42.805,6.029,13.3009,4.60075,2469.424,2021-4-09T08:18:32Z
2021-04-09T06:20:27Z,42.805,6.029,13.2998,4.60071,2469.424,2021-4-09T08:21:35Z
2021-04-09T06:23:30Z,42.805,6.029,13.3015,4.60070,2469.447,2021-4-09T08:24:38Z
2021-04-09T06:26:33Z,42.805,6.029,13.2999,4.60066,2469.456,2021-4-09T08:27:41Z
2021-04-09T06:29:36Z,42.805,6.029,13.3005,4.60086,2469.433,2021-4-09T08:30:45Z
2021-04-09T06:32:40Z,42.805,6.029,13.2996,4.60064,2469.447,2021-4-09T08:33:48Z
2021-04-09T06:35:43Z,42.805,6.029,13.3012,4.60061,2469.424,2021-4-09T08:36:51Z
2021-04-09T06:38:46Z,42.805,6.029,13.3012,4.60059,2469.447,2021-4-09T08:39:54Z
2021-04-09T06:41:49Z,42.805,6.029,13.3015,4.60061,2469.424,2021-4-09T08:42:57Z
2021-04-09T06:44:52Z,42.805,6.029,13.3004,4.60052,2469.447,2021-4-09T08:46:00Z
2021-04-09T06:47:55Z,42.805,6.029,13.3010,4.60074,2469.433,2021-4-09T08:49:03Z
2021-04-09T06:50:58Z,42.805,6.029,13.3017,4.60074,2469.447,2021-4-09T08:52:06Z
2021-04-09T06:54:01Z,42.805,6.029,13.3009,4.60066,2469.386,2021-4-09T08:55:09Z
2021-04-09T06:57:04Z,42.805,6.029,13.3009,4.60069,2469.433,2021-4-09T08:58:13Z
2021-04-09T07:00:08Z,42.805,6.029,13.3010,4.60071,2469.41,2021-4-09T09:01:16Z
2021-04-09T07:03:11Z,42.805,6.029,13.3008,4.60041,2469.424,2021-4-09T09:04:19Z
2021-04-09T07:06:14Z,42.805,6.029,13.2996,4.60067,2469.396,2021-4-09T09:07:22Z
2021-04-09T07:09:17Z,42.805,6.029,13.3002,4.60045,2469.447,2021-4-09T09:10:25Z
2021-04-09T07:12:20Z,42.805,6.029,13.2997,4.60092,2469.433,2021-4-09T09:13:28Z
2021-04-09T07:15:23Z,42.805,6.029,13.2998,4.60063,2469.373,2021-4-09T09:16:31Z
2021-04-09T07:18:26Z,42.805,6.029,13.2998,4.60053,2469.424,2021-4-09T09:19:34Z
2021-04-09T07:21:29Z,42.805,6.029,13.3005,4.60051,2469.433,2021-4-09T09:22:38Z
2021-04-09T07:24:33Z,42.805,6.029,13.3004,4.60039,2469.386,2021-4-09T09:25:41Z
2021-04-09T07:27:36Z,42.805,6.029,13.3003,4.60052,2469.41,2021-4-09T09:28:44Z
2021-04-09T07:30:39Z,42.805,6.029,13.2990,4.60044,2469.386,2021-4-09T09:31:47Z
2021-04-09T07:33:42Z,42.805,6.029,13.3001,4.60049,2469.386,2021-4-09T09:34:50Z
2021-04-09T07:36:45Z,42.805,6.029,13.2996,4.60039,2469.41,2021-4-09T09:37:53Z
2021-04-09T07:39:48Z,42.805,6.029,13.2997,4.60056,2469.424,2021-4-09T09:40:56Z
2021-04-09T07:42:51Z,42.805,6.029,13.3004,4.60051,2469.447,2021-4-09T09:43:59Z
2021-04-09T07:45:54Z,42.805,6.029,13.2987,4.60029,2469.433,2021-4-09T09:47:03Z
2021-04-09T07:48:58Z,42.805,6.029,13.2992,4.60051,2469.447,2021-4-09T09:50:06Z
2021-04-09T07:52:01Z,42.805,6.029,13.3000,4.60054,2469.447,2021-4-09T09:53:09Z
2021-04-09T07:55:04Z,42.805,6.029,13.2998,4.60055,2469.4,2021-4-09T09:56:12Z
2021-04-09T07:58:07Z,42.805,6.029,13.2992,4.60046,2469.386,2021-4-09T09:59:15Z
2021-04-09T08:01:10Z,42.805,6.029,13.2996,4.60044,2469.433,2021-4-09T10:02:18Z
2021-04-09T08:04:13Z,42.805,6.029,13.2990,4.60031,2469.456,2021-4-09T10:05:21Z
2021-04-09T08:07:16Z,42.805,6.029,13.2996,4.60031,2469.41,2021-4-09T10:08:24Z
2021-04-09T08:10:19Z,42.805,6.029,13.2994,4.60033,2469.424,2021-4-09T10:11:27Z
2021-04-09T08:13:22Z,42.805,6.029,13.2988,4.60034,2469.433,2021-4-09T10:14:31Z
2021-04-09T08:16:26Z,42.805,6.029,13.2992,4.60046,2469.47,2021-4-09T10:17:34Z
2021-04-09T08:19:29Z,42.805,6.029,13.2998,4.60048,2469.4,2021-4-09T10:20:37Z
2021-04-09T08:22:32Z,42.805,6.029,13.3003,4.60023,2469.41,2021-4-09T10:23:40Z
2021-04-09T08:25:35Z,42.805,6.029,13.2993,4.60036,2469.41,2021-4-09T10:26:43Z
2021-04-09T08:28:38Z,42.805,6.029,13.2995,4.60039,2469.433,2021-4-09T10:29:46Z
2021-04-09T08:31:41Z,42.805,6.029,13.3003,4.60019,2469.386,2021-4-09T10:32:49Z
2021-04-09T08:34:44Z,42.805,6.029,13.2991,4.60031,2469.424,2021-4-09T10:35:52Z
2021-04-09T08:37:47Z,42.805,6.029,13.2995,4.60018,2469.386,2021-4-09T10:38:56Z
2021-04-09T08:40:51Z,42.805,6.029,13.2991,4.60031,2469.424,2021-4-09T10:41:59Z
2021-04-09T08:43:54Z,42.805,6.029,13.2986,4.60023,2469.424,2021-4-09T10:45:02Z
2021-04-09T08:46:57Z,42.805,6.029,13.2993,4.60029,2469.41,2021-4-09T10:48:05Z
2021-04-09T08:50:00Z,42.805,6.029,13.2992,4.60036,2469.41,2021-4-09T10:51:08Z
2021-04-09T08:53:03Z,42.805,6.029,13.2994,4.60027,2469.41,2021-4-09T10:54:11Z
2021-04-09T08:56:06Z,42.805,6.029,13.2986,4.60016,2469.4,2021-4-09T10:57:14Z
2021-04-09T08:59:09Z,42.805,6.029,13.2999,4.60018,2469.424,2021-4-09T11:00:17Z
2021-04-09T09:02:12Z,42.805,6.029,13.3003,4.60051,2469.386,2021-4-09T11:03:21Z
2021-04-09T09:05:16Z,42.805,6.029,13.3002,4.60026,2469.424,2021-4-09T11:06:24Z
2021-04-09T09:08:19Z,42.805,6.029,13.2987,4.60013,2469.41,2021-4-09T11:09:27Z
2021-04-09T09:11:22Z,42.805,6.029,13.2994,4.60021,2469.433,2021-4-09T11:12:30Z
2021-04-09T09:14:25Z,42.805,6.029,13.2990,4.60026,2469.41,2021-4-09T11:15:33Z
2021-04-09T09:17:28Z,42.805,6.029,13.2996,4.60015,2469.424,2021-4-09T11:18:36Z
2021-04-09T09:20:31Z,42.805,6.029,13.2988,4.60014,2469.424,2021-4-09T11:21:39Z
2021-04-09T09:23:34Z,42.805,6.029,13.2994,4.60009,2469.386,2021-4-09T11:24:42Z
2021-04-09T09:26:37Z,42.805,6.029,13.2992,4.60035,2469.41,2021-4-09T11:27:46Z
2021-04-09T09:29:41Z,42.805,6.029,13.2995,4.60035,2469.424,2021-4-09T11:30:49Z
2021-04-09T09:32:44Z,42.805,6.029,13.2989,4.60033,2469.447,2021-4-09T11:33:52Z
2021-04-09T09:35:47Z,42.805,6.029,13.2990,4.60046,2469.456,2021-4-09T11:36:55Z
2021-04-09T09:38:50Z,42.805,6.029,13.2991,4.60020,2469.41,2021-4-09T11:39:58Z
2021-04-09T09:41:53Z,42.805,6.029,13.2993,4.60026,2469.41,2021-4-09T11:43:01Z
2021-04-09T09:44:56Z,42.805,6.029,13.2988,4.60011,2469.424,2021-4-09T11:46:04Z
2021-04-09T09:47:59Z,42.805,6.029,13.2993,4.60010,2469.377,2021-4-09T11:49:07Z
2021-04-09T09:51:02Z,42.805,6.029,13.2992,4.60021,2469.386,2021-4-09T11:52:11Z
2021-04-09T09:54:06Z,42.805,6.029,13.2995,4.60019,2469.424,2021-4-09T11:55:14Z
2021-04-09T09:57:09Z,42.805,6.029,13.2998,4.60035,2469.41,2021-4-09T11:58:17Z
2021-04-09T10:00:12Z,42.805,6.029,13.2993,4.60033,2469.386,2021-4-09T12:01:20Z
2021-04-09T10:03:15Z,42.805,6.029,13.2986,4.60002,2469.41,2021-4-09T12:04:23Z
2021-04-09T10:06:18Z,42.805,6.029,13.2987,4.60016,2469.447,2021-4-09T12:07:26Z
2021-04-09T10:09:21Z,42.805,6.029,13.2991,4.60006,2469.447,2021-4-09T12:10:29Z
2021-04-09T10:12:24Z,42.805,6.029,13.2991,4.60015,2469.433,2021-4-09T12:13:32Z
2021-04-09T10:15:27Z,42.805,6.029,13.2996,4.60039,2469.424,2021-4-09T12:16:36Z
2021-04-09T10:18:31Z,42.805,6.029,13.2986,4.60027,2469.424,2021-4-09T12:19:39Z
2021-04-09T10:21:34Z,42.805,6.029,13.2988,4.60034,2469.424,2021-4-09T12:22:42Z
2021-04-09T10:24:37Z,42.805,6.029,13.2993,4.60029,2469.41,2021-4-09T12:25:45Z
2021-04-09T10:27:40Z,42.805,6.029,13.2990,4.60061,2469.447,2021-4-09T12:28:48Z
2021-04-09T10:30:43Z,42.805,6.029,13.3001,4.60038,2469.447,2021-4-09T12:31:51Z
2021-04-09T10:33:46Z,42.805,6.029,13.3009,4.60041,2469.47,2021-4-09T12:34:54Z
2021-04-09T10:36:49Z,42.805,6.029,13.2992,4.60059,2469.386,2021-4-09T12:37:57Z
2021-04-09T10:39:52Z,42.805,6.029,13.2991,4.60062,2469.447,2021-4-09T12:41:01Z
2021-04-09T10:42:56Z,42.805,6.029,13.3013,4.60044,2469.447,2021-4-09T12:44:04Z
2021-04-09T10:45:59Z,42.805,6.029,13.2998,4.60016,2469.47,2021-4-09T12:47:07Z
2021-04-09T10:49:02Z,42.805,6.029,13.2996,4.60058,2469.424,2021-4-09T12:50:10Z
2021-04-09T10:52:05Z,42.805,6.029,13.2993,4.60019,2469.447,2021-4-09T12:53:13Z
2021-04-09T10:55:08Z,42.805,6.029,13.2994,4.60035,2469.456,2021-4-09T12:56:16Z
2021-04-09T10:58:11Z,42.805,6.029,13.2994,4.60036,2469.396,2021-4-09T12:59:19Z
2021-04-09T11:01:14Z,42.805,6.029,13.3004,4.60057,2469.41,2021-4-09T13:02:22Z
2021-04-09T11:04:17Z,42.805,6.029,13.2992,4.60039,2469.433,2021-4-09T13:05:25Z
2021-04-09T11:07:20Z,42.805,6.029,13.3013,4.60079,2469.433,2021-4-09T13:08:29Z
2021-04-09T11:10:24Z,42.805,6.029,13.2994,4.60033,2469.386,2021-4-09T13:11:32Z
2021-04-09T11:13:27Z,42.805,6.029,13.3009,4.60055,2469.433,2021-4-09T13:14:35Z
2021-04-09T11:16:30Z,42.805,6.029,13.3006,4.60046,2469.386,2021-4-09T13:17:38Z
2021-04-09T11:19:33Z,42.805,6.029,13.3000,4.60052,2469.41,2021-4-09T13:20:41Z
2021-04-09T11:22:36Z,42.805,6.029,13.3011,4.60032,2469.456,2021-4-09T13:23:44Z
2021-04-09T11:25:39Z,42.805,6.029,13.3011,4.60022,2469.456,2021-4-09T13:26:47Z
2021-04-09T11:28:42Z,42.805,6.029,13.3010,4.60051,2469.41,2021-4-09T13:29:51Z
2021-04-09T11:31:46Z,42.805,6.029,13.3003,4.60049,2469.424,2021-4-09T13:32:54Z
2021-04-09T11:34:49Z,42.805,6.029,13.2992,4.60021,2469.41,2021-4-09T13:35:57Z
2021-04-09T11:37:52Z,42.805,6.029,13.3000,4.60060,2469.447,2021-4-09T13:39:00Z
2021-04-09T11:40:55Z,42.805,6.029,13.3007,4.60028,2469.447,2021-4-09T13:42:03Z
2021-04-09T11:43:58Z,42.805,6.029,13.3006,4.60054,2469.386,2021-4-09T13:45:06Z
2021-04-09T11:47:01Z,42.805,6.029,13.3007,4.60052,2469.41,2021-4-09T13:48:09Z
2021-04-09T11:50:04Z,42.805,6.029,13.3019,4.60061,2469.447,2021-4-09T13:51:12Z
2021-04-09T11:53:07Z,42.805,6.029,13.3017,4.60050,2469.41,2021-4-09T13:54:15Z
2021-04-09T11:56:10Z,42.805,6.029,13.3000,4.60046,2469.433,2021-4-09T13:57:19Z
2021-04-09T11:59:14Z,42.805,6.029,13.3000,4.60067,2469.424,2021-4-09T14:00:22Z
2021-04-09T12:02:17Z,42.805,6.029,13.3001,4.60046,2469.447,2021-4-09T14:03:25Z
2021-04-09T12:05:20Z,42.805,6.029,13.3009,4.60056,2469.424,2021-4-09T14:06:28Z
2021-04-09T12:08:23Z,42.805,6.029,13.3011,4.60072,2469.433,2021-4-09T14:09:31Z
2021-04-09T12:11:26Z,42.805,6.029,13.3004,4.60056,2469.41,2021-4-09T14:12:34Z
2021-04-09T12:14:29Z,42.805,6.029,13.3011,4.60076,2469.424,2021-4-09T14:15:37Z
2021-04-09T12:17:32Z,42.805,6.029,13.3025,4.60039,2469.424,2021-4-09T14:18:40Z
2021-04-09T12:20:35Z,42.805,6.029,13.3026,4.60041,2469.363,2021-4-09T14:21:44Z
2021-04-09T12:23:39Z,42.805,6.029,13.3020,4.60038,2469.447,2021-4-09T14:24:47Z
2021-04-09T12:26:42Z,42.805,6.029,13.2989,4.60056,2469.41,2021-4-09T14:27:50Z
2021-04-09T12:29:45Z,42.805,6.029,13.3019,4.60034,2469.433,2021-4-09T14:30:53Z
2021-04-09T12:32:48Z,42.805,6.029,13.3036,4.60048,2469.47,2021-4-09T14:33:56Z
2021-04-09T12:35:51Z,42.805,6.029,13.3030,4.60064,2469.447,2021-4-09T14:36:59Z
2021-04-09T12:38:54Z,42.805,6.029,13.3014,4.60062,2469.386,2021-4-09T14:40:02Z
2021-04-09T12:41:57Z,42.805,6.029,13.3009,4.60054,2469.447,2021-4-09T14:43:05Z
2021-04-09T12:45:00Z,42.805,6.029,13.3014,4.60057,2469.447,2021-4-09T14:46:09Z
2021-04-09T12:48:04Z,42.805,6.029,13.3006,4.60042,2469.386,2021-4-09T14:49:12Z
2021-04-09T12:51:07Z,42.805,6.029,13.3017,4.60031,2469.456,2021-4-09T14:52:15Z
2021-04-09T12:54:10Z,42.805,6.029,13.3026,4.60069,2469.424,2021-4-09T14:55:18Z
2021-04-09T12:57:13Z,42.805,6.029,13.3033,4.60064,2469.433,2021-4-09T14:58:21Z
2021-04-09T13:00:16Z,42.805,6.029,13.3008,4.60045,2469.433,2021-4-09T15:01:24Z
2021-04-09T13:03:19Z,42.805,6.029,13.3001,4.60059,2469.424,2021-4-09T15:04:27Z
2021-04-09T13:06:22Z,42.805,6.029,13.3006,4.60038,2469.447,2021-4-09T15:07:30Z
2021-04-09T13:09:25Z,42.805,6.029,13.2998,4.60073,2469.433,2021-4-09T15:10:34Z
2021-04-09T13:12:29Z,42.805,6.029,13.3019,4.60054,2469.456,2021-4-09T15:13:37Z
2021-04-09T13:15:32Z,42.805,6.029,13.3007,4.60049,2469.433,2021-4-09T15:16:40Z
2021-04-09T13:18:35Z,42.805,6.029,13.3015,4.60031,2469.47,2021-4-09T15:19:43Z
2021-04-09T13:21:38Z,42.805,6.029,13.3023,4.60071,2469.433,2021-4-09T15:22:46Z
2021-04-09T13:24:41Z,42.805,6.029,13.3021,4.60055,2469.48,2021-4-09T15:25:49Z
2021-04-09T13:27:44Z,42.805,6.029,13.3031,4.60043,2469.48,2021-4-09T15:28:52Z
2021-04-09T13:30:47Z,42.805,6.029,13.3019,4.60056,2469.494,2021-4-09T15:31:55Z
2021-04-09T13:33:50Z,42.805,6.029,13.3005,4.60073,2469.447,2021-4-09T15:34:59Z
2021-04-09T13:36:54Z,42.805,6.029,13.3014,4.60078,2469.503,2021-4-09T15:38:02Z
2021-04-09T13:39:57Z,42.805,6.029,13.3024,4.60052,2469.456,2021-4-09T15:41:05Z
2021-04-09T13:43:00Z,42.805,6.029,13.2993,4.60032,2469.433,2021-4-09T15:44:08Z
2021-04-09T13:46:03Z,42.805,6.029,13.2990,4.60024,2469.48,2021-4-09T15:47:11Z
2021-04-09T13:49:06Z,42.805,6.029,13.2995,4.60038,2469.494,2021-4-09T15:50:14Z
2021-04-09T13:52:09Z,42.805,6.029,13.3019,4.60043,2469.47,2021-4-09T15:53:17Z
2021-04-09T13:55:12Z,42.805,6.029,13.3016,4.60047,2469.494,2021-4-09T15:56:20Z
2021-04-09T13:58:15Z,42.805,6.029,13.3024,4.60064,2469.47,2021-4-09T15:59:24Z
2021-04-09T14:01:19Z,42.805,6.029,13.3026,4.60043,2469.494,2021-4-09T16:02:27Z
2021-04-09T14:04:22Z,42.805,6.029,13.3013,4.60064,2469.494,2021-4-09T16:05:30Z
2021-04-09T14:07:25Z,42.805,6.029,13.3011,4.60074,2469.48,2021-4-09T16:08:33Z
2021-04-09T14:10:28Z,42.805,6.029,13.2993,4.60074,2469.47,2021-4-09T16:11:36Z
2021-04-09T14:13:31Z,42.805,6.029,13.3006,4.60056,2469.494,2021-4-09T16:14:39Z
2021-04-09T14:16:34Z,42.805,6.029,13.2990,4.60029,2469.531,2021-4-09T16:17:42Z
2021-04-09T14:19:37Z,42.805,6.029,13.3004,4.60048,2469.503,2021-4-09T16:20:45Z
2021-04-09T14:22:40Z,42.805,6.029,13.2997,4.60051,2469.489,2021-4-09T16:23:49Z
2021-04-09T14:25:44Z,42.805,6.029,13.2995,4.60034,2469.517,2021-4-09T16:26:52Z
2021-04-09T14:28:47Z,42.805,6.029,13.3000,4.60058,2469.503,2021-4-09T16:29:55Z
2021-04-09T14:31:50Z,42.805,6.029,13.2997,4.60069,2469.517,2021-4-09T16:32:58Z
2021-04-09T14:34:53Z,42.805,6.029,13.3009,4.60034,2469.526,2021-4-09T16:36:01Z
2021-04-09T14:37:56Z,42.805,6.029,13.3000,4.60063,2469.503,2021-4-09T16:39:04Z
2021-04-09T14:40:59Z,42.805,6.029,13.2999,4.60049,2469.503,2021-4-09T16:42:07Z
2021-04-09T14:44:02Z,42.805,6.029,13.2997,4.60081,2469.54,2021-4-09T16:45:10Z
2021-04-09T14:47:05Z,42.805,6.029,13.3004,4.60066,2469.54,2021-4-09T16:48:14Z
2021-04-09T14:50:09Z,42.805,6.029,13.3014,4.60055,2469.526,2021-4-09T16:51:17Z
2021-04-09T14:53:12Z,42.805,6.029,13.3004,4.60064,2469.503,2021-4-09T16:54:20Z
2021-04-09T14:56:15Z,42.805,6.029,13.3011,4.60037,2469.503,2021-4-09T16:57:23Z
2021-04-09T14:59:18Z,42.805,6.029,13.3007,4.60056,2469.55,2021-4-09T17:00:26Z
2021-04-09T15:02:21Z,42.805,6.029,13.3017,4.60087,2469.563,2021-4-09T17:03:29Z
2021-04-09T15:05:24Z,42.805,6.029,13.3011,4.60056,2469.55,2021-4-09T17:06:32Z
2021-04-09T15:08:27Z,42.805,6.029,13.3011,4.60042,2469.55,2021-4-09T17:09:35Z
2021-04-09T15:11:30Z,42.805,6.029,13.2991,4.60078,2469.597,2021-4-09T17:12:39Z
2021-04-09T15:14:33Z,42.805,6.029,13.3013,4.60082,2469.55,2021-4-09T17:15:42Z